World > North America > United States > Illinois > Campbell Hill

Hourly Campbell Hill, IL Regional Weather

Feedback E-mail the Weather

Quick WX

Campbell Hill, IL Weather Maps

°F °C°F °C
Campbell Hill Weather Map
UTC Time: 8/17/2022, 19:34
Your Time:

Campbell Hill, IL Regional Weather

Expires:202208172000;;210920
ASUS43 KLOT 171910
RWRIL 

ILLINOIS REGIONAL WEATHER ROUNDUP
NATIONAL WEATHER SERVICE CHICAGO/ROMEOVILLE IL
200 PM CDT WED AUG 17 2022

NOTE: "FAIR" INDICATES FEW OR NO CLOUDS BELOW 12,000 FEET WITH NO
SIGNIFICANT WEATHER AND/OR OBSTRUCTIONS TO VISIBILITY.

* THESE STATIONS ARE NOT UNDER NWS QUALITY CONTROL. THEY ALSO MAY NOT
  REPORT WEATHER SUCH AS PRECIPITATION OR FOG.


ILZ064>066-069>071-074>076-080>082-084>086-088>090-092>094-172000-
SOUTH-CENTRAL ILLINOIS
  
CITY           SKY/WX    TMP DP  RH WIND       PRES   REMARKS
CARBONDALE     MOSUNNY   82  65  56 NE8       30.06F HX  84           
CAIRO*         PTSUNNY   83  65  54 E7        30.04F HX  84           
EFFINGHAM*     MOSUNNY   80  62  54 NE5       30.11S HX  81           
MARION         MOSUNNY   81  63  54 NE12      30.06F HX  82           
MT. VERNON     MOSUNNY   81  63  54 NE9G17    30.07F HX  82           
CENTRALIA*     PTSUNNY   80  68  66 NE8       30.08S HX  83           
SALEM*         PTSUNNY   80  64  58 NE6       30.09F HX  82           
METROPOLIS*    PTSUNNY   82  62  51 N8        30.04F HX  83           
$$


SKY/WX - Weather  TMP - Temperature  DP - Dew Point  RH - Humidity
WIND - Wind Direction/Speed PRES - Barometric Pressure VSB - Visibility
WCI - Wind Chill Index E13G22 Wind - East Wind 13 mph/Gusts of 22 mph

Trending Headlines

Campbell Hill Radar Loop



Campbell Hill Quick Facts


National Two Day Weather Forecast


E-mail the Campbell Hill Weather Forecast

Voice your opinion or tell us about page issues...